STARLINK-3234 (50815 NORAD) Tracking and Keplerian Element Data

This shows tracking and keplerian element data for the satellite.

Feedback or suggestion? Click here.




ElementValue
Catalog50815
NameSTARLINK-3234
Epoch Orbit382
Epoch Day22.91667824
Epoch Year2022
RAAN119.7818
Inclination53.2175
Eccentricity0.000107
Argument of Perigee73.0864
Mean Anonmoly231.6697
Mean Motion15.7509062
Decay Rate-0.00821051
L11 50815U 22001N 22022.91667824 -.00821051 00000+0 -59325-2 0 9999
L22 50815 53.2175 119.7818 0001070 73.0864 231.6697 15.75090620 3827

Live tracking and technical data element details for STARLINK-3234 (NORAD 50815). STARLINK-3234 can be tracked NOW for your location showing map with azimuth and elevation plus other details from your city location.

Track the satellite on the map from your city or location and see movement details for azimuth, elevation, latitude, longitude, range, height, and movement on the map or in text.







IsCatalogInMostPopularTable: catalog: 50815, numindb: 1
Update: records affected: 1



GetName: 50815 STARLINK-3234

Hit Count: updated at: Mon, 24 Jan 2022 01:33:30 GMT